Date String (YYYY-MM-DD hh:mm:ss) UTC,Instrument flags,Ambient pressure (hPa),Sample flow (lpm),Bypass flow (lpm),Sample temperature (°C),Ambient temperature (°C),ASC tube jacket temperature (°C),LED temperature (°C),Box temperature (°C),Sample RH (%),Span deviation,Mass concentration (μg/m³),Mass concentration (μg/m³),Mass concentration (μg/m³)
DateTimeUTC,F1_M11,P_M11,Q1_M11,Q2_M11,T1_M11,T2_M11,T3_M11,T4_M11,T5_M11,U1_M11,ZSPAN_M11,X0_M11,X2_M11,X1_M11
2021-10-13 19:00:00,,0816.2,5.00,0.00,24.7,23.9,00.0,33.7,26.5,10.9,0000.0,0003.76,0001.23,0000.82
2021-10-13 19:01:00,,0816.1,5.01,0.00,24.7,23.9,00.0,33.7,26.5,11.0,0000.0,0004.36,0001.26,0000.82
2021-10-13 19:02:00,,0816.1,4.99,0.00,24.7,23.9,00.0,33.7,26.5,11.0,0000.0,0005.15,0001.26,0000.83
2021-10-13 19:03:00,,0816.0,5.00,0.00,24.7,23.9,00.0,33.7,26.5,10.9,0000.0,0005.70,0001.31,0000.83
2021-10-13 19:04:00,,0816.1,5.01,0.00,24.7,23.9,00.0,33.7,26.5,10.8,0000.0,0005.71,0001.29,0000.83
2021-10-13 19:05:00,,0816.1,5.00,0.00,24.7,23.9,00.0,33.7,26.5,11.1,0000.0,0006.08,0001.29,0000.83
2021-10-13 19:06:00,,0816.1,5.00,0.00,24.7,24.0,00.0,33.7,26.5,10.8,0000.0,0006.02,0001.27,0000.83
2021-10-13 19:07:00,,0816.0,5.01,0.00,24.7,24.0,00.0,33.7,26.5,10.8,0000.0,0006.04,0001.28,0000.83
2021-10-13 19:08:00,,0816.1,4.99,0.00,24.7,24.0,00.0,33.8,26.5,10.7,0000.0,0006.32,0001.28,0000.83
2021-10-13 19:09:00,,0816.2,5.01,0.00,24.7,24.0,00.0,33.8,26.5,10.9,0000.0,0006.56,0001.32,0000.83
2021-10-13 19:10:00,,0816.3,5.00,0.00,24.7,24.0,00.0,33.8,26.5,10.6,0000.0,0006.10,0001.33,0000.83
2021-10-13 19:11:00,,0816.3,5.00,0.00,24.7,24.0,00.0,33.8,26.6,10.9,0000.0,0006.07,0001.32,0000.84
2021-10-13 19:12:00,,0816.3,5.00,0.00,24.7,24.0,00.0,33.8,26.6,10.9,0000.0,0005.59,0001.34,0000.84
2021-10-13 19:13:00,,0816.3,5.00,0.00,24.7,24.0,00.0,33.8,26.6,10.4,0000.0,0004.76,0001.36,0000.85
2021-10-13 19:14:00,,0816.3,5.01,0.00,24.8,24.0,00.0,33.8,26.6,10.6,0000.0,0004.29,0001.29,0000.85
2021-10-13 19:15:00,,0816.2,5.01,0.00,24.8,24.0,00.0,33.8,26.6,11.0,0000.0,0004.29,0001.31,0000.87
2021-10-13 19:16:00,,0816.2,4.99,0.00,24.8,24.0,00.0,33.8,26.6,10.9,0000.0,0003.85,0001.34,0000.88
2021-10-13 19:17:00,,0816.3,4.99,0.00,24.8,24.0,00.0,33.8,26.6,10.4,0000.0,0004.67,0001.40,0000.89
2021-10-13 19:18:00,,0816.2,5.02,0.00,24.8,24.0,00.0,33.8,26.6,10.7,0000.0,0005.02,0001.38,0000.90
2021-10-13 19:19:00,,0816.1,4.99,0.00,24.8,24.1,00.0,33.9,26.7,11.0,0000.0,0004.54,0001.39,0000.91
2021-10-13 19:20:00,,0816.1,5.00,0.00,24.8,24.1,00.0,33.9,26.7,10.7,0000.0,0004.11,0001.40,0000.92
2021-10-13 19:21:00,,0816.3,5.00,0.00,24.8,24.1,00.0,33.9,26.7,10.8,0000.0,0003.57,0001.40,0000.93
2021-10-13 19:22:00,,0816.4,5.01,0.00,24.9,24.1,00.0,33.9,26.7,11.0,0000.0,0003.55,0001.40,0000.94
2021-10-13 19:23:00,,0816.3,5.01,0.00,24.9,24.1,00.0,33.9,26.7,10.9,0000.0,0003.50,0001.40,0000.94
2021-10-13 19:24:00,,0816.3,4.99,0.00,24.9,24.1,00.0,33.9,26.6,10.8,0000.0,0004.13,0001.43,0000.93
2021-10-13 19:25:00,,0816.4,5.00,0.00,24.9,24.1,00.0,33.9,26.7,10.7,0000.0,0004.14,0001.44,0000.93
2021-10-13 19:26:00,,0816.4,5.01,0.00,24.9,24.1,00.0,33.9,26.7,10.7,0000.0,0004.10,0001.44,0000.92
2021-10-13 19:27:00,,0816.4,5.01,0.00,24.9,24.1,00.0,33.9,26.7,10.8,0000.0,0004.08,0001.40,0000.91
2021-10-13 19:28:00,,0816.3,4.99,0.00,24.9,24.1,00.0,33.9,26.7,11.0,0000.0,0003.47,0001.37,0000.90
2021-10-13 19:29:00,,0816.3,5.01,0.00,24.9,24.0,00.0,34.0,26.7,10.9,0000.0,0002.87,0001.37,0000.89
2021-10-13 19:30:00,,0816.3,4.99,0.00,24.9,24.1,00.0,34.0,26.8,10.9,0000.0,0002.77,0001.32,0000.88
2021-10-13 19:31:00,,0816.3,5.00,0.00,25.0,24.1,00.0,34.0,26.8,10.8,0000.0,0002.54,0001.23,0000.85
2021-10-13 19:32:00,,0816.4,5.01,0.00,25.0,24.1,00.0,34.0,26.8,10.9,0000.0,0002.69,0001.21,0000.84
2021-10-13 19:33:00,,0816.3,4.98,0.00,25.0,24.1,00.0,34.0,26.8,11.2,0000.0,0003.84,0001.20,0000.83
2021-10-13 19:34:00,,0816.3,5.01,0.00,25.0,24.1,00.0,34.0,26.8,11.1,0000.0,0004.42,0001.24,0000.83
2021-10-13 19:35:00,,0816.3,5.00,0.00,25.0,24.1,00.0,34.0,26.8,10.8,0000.0,0003.78,0001.18,0000.84
2021-10-13 19:36:00,,0816.3,5.00,0.00,25.0,24.1,00.0,34.0,26.8,11.0,0000.0,0003.60,0001.15,0000.83
2021-10-13 19:37:00,,0816.4,4.99,0.00,25.0,24.2,00.0,34.0,26.8,10.9,0000.0,0003.52,0001.13,0000.84
2021-10-13 19:38:00,,0816.3,5.00,0.00,25.0,24.2,00.0,34.1,26.8,10.7,0000.0,0003.58,0001.14,0000.85
2021-10-13 19:39:00,,0816.4,5.00,0.00,25.1,24.2,00.0,34.1,26.8,10.6,0000.0,0003.60,0001.14,0000.86
2021-10-13 19:40:00,,0816.4,5.00,0.00,25.1,24.2,00.0,34.1,26.9,10.7,0000.0,0003.80,0001.20,0000.88
2021-10-13 19:41:00,,0816.4,4.99,0.00,25.1,24.2,00.0,34.1,26.9,10.8,0000.0,0003.85,0001.24,0000.90
2021-10-13 19:42:00,,0816.4,5.00,0.00,25.1,24.2,00.0,34.1,26.9,10.6,0000.0,0003.94,0001.30,0000.92
2021-10-13 19:43:00,,0816.4,5.01,0.00,25.1,24.2,00.0,34.1,26.9,10.8,0000.0,0003.80,0001.33,0000.94
2021-10-13 19:44:00,,0816.6,5.00,0.00,25.1,24.2,00.0,34.1,26.9,10.5,0000.0,0002.56,0001.33,0000.97
2021-10-13 19:45:00,,0816.5,5.00,0.00,25.1,24.3,00.0,34.1,26.9,10.4,0000.0,0001.99,0001.27,0000.98
2021-10-13 19:46:00,,0816.5,5.00,0.00,25.1,24.2,00.0,34.1,26.9,10.7,0000.0,0002.08,0001.30,0000.99
2021-10-13 19:47:00,,0816.5,5.01,0.00,25.1,24.3,00.0,34.1,26.9,10.7,0000.0,0002.10,0001.31,0001.00
2021-10-13 19:48:00,,0816.7,5.00,0.00,25.1,24.3,00.0,34.1,26.9,10.6,0000.0,0002.08,0001.31,0001.00
2021-10-13 19:49:00,,0816.4,5.00,0.00,25.1,24.3,00.0,34.2,27.0,10.6,0000.0,0002.17,0001.32,0001.01
2021-10-13 19:50:00,,0816.5,4.99,0.00,25.2,24.3,00.0,34.2,27.0,10.8,0000.0,0002.90,0001.33,0001.02
2021-10-13 19:51:00,,0816.5,5.01,0.00,25.2,24.3,00.0,34.2,27.0,10.9,0000.0,0002.85,0001.34,0001.01
2021-10-13 19:52:00,,0816.4,4.99,0.00,25.2,24.3,00.0,34.2,27.0,11.0,0000.0,0002.88,0001.34,0001.01
2021-10-13 19:53:00,,0816.5,4.99,0.00,25.2,24.3,00.0,34.2,27.0,10.8,0000.0,0002.80,0001.30,0001.00
2021-10-13 19:54:00,,0816.5,5.01,0.00,25.2,24.3,00.0,34.2,27.0,10.8,0000.0,0002.80,0001.30,0000.99
2021-10-13 19:55:00,,0816.5,4.99,0.00,25.2,24.3,00.0,34.2,27.0,10.9,0000.0,0002.88,0001.33,0000.99
2021-10-13 19:56:00,,0816.4,5.00,0.00,25.2,24.3,00.0,34.2,27.0,10.8,0000.0,0002.95,0001.35,0000.97
2021-10-13 19:57:00,,0816.4,5.00,0.00,25.2,24.4,00.0,34.2,27.0,10.7,0000.0,0002.88,0001.34,0000.97
2021-10-13 19:58:00,,0816.4,5.00,0.00,25.2,24.4,00.0,34.2,27.0,10.9,0000.0,0002.93,0001.36,0000.97
2021-10-13 19:59:00,,0816.3,5.01,0.00,25.2,24.4,00.0,34.2,27.0,11.1,0000.0,0003.25,0001.43,0000.97
